This is the latest recevied weather packets stored in our database for station/object JH4GLG-13. If no packets are shown the sender has not sent any weather packets the latest 10 day(s).
| Time | Temp. | Humidity | Pressure | Rain* | Wind** | Luminosity | Snow |
|---|---|---|---|---|---|---|---|
| 1777785970 | 19.44° C | 89% | 1003.5 hPa | 0 mm | - | - | - |
| 1777785966 | 19.44° C | 89% | 1003.6 hPa | 0 mm | - | - | - |
| 1777785065 | 19.44° C | 88% | 1003.8 hPa | 0 mm | - | - | - |
| 1777784166 | 19.44° C | 85% | 1004.1 hPa | 0 mm | - | - | - |
| 1777783264 | 19.44° C | 85% | 1004.3 hPa | 0 mm | - | - | - |
| 1777782366 | 19.44° C | 86% | 1004.6 hPa | 0 mm | - | - | - |
| 1777781464 | 18.89° C | 87% | 1005.1 hPa | 0 mm | - | - | - |
| 1777780566 | 18.89° C | 90% | 1005.6 hPa | 0 mm | - | - | - |
| 1777779664 | 18.89° C | 92% | 1005.9 hPa | 0 mm | - | - | - |
| 1777778766 | 18.89° C | 91% | 1006.3 hPa | 0 mm | - | - | - |
| 1777777864 | 18.89° C | 86% | 1006.5 hPa | 0 mm | - | - | - |
| 1777776965 | 19.44° C | 85% | 1006.8 hPa | 0 mm | - | - | - |
| 1777776064 | 19.44° C | 85% | 1007.1 hPa | 0 mm | - | - | - |
| 1777775164 | 18.89° C | 86% | 1007.3 hPa | 0 mm | - | - | - |
| 1777774264 | 18.89° C | 86% | 1007.9 hPa | 0 mm | - | - | - |
| 1777773365 | 19.44° C | 85% | 1007.9 hPa | 0 mm | - | - | - |
| 1777772464 | 18.89° C | 86% | 1008.2 hPa | 0 mm | - | - | - |
| 1777771564 | 18.89° C | 85% | 1008.5 hPa | 0 mm | - | - | - |
| 1777770663 | 18.33° C | 83% | 1008.7 hPa | 0 mm | - | - | - |
| 1777769764 | 18.33° C | 81% | 1008.9 hPa | 0 mm | - | - | - |
| 1777768863 | 18.89° C | 81% | 1009.2 hPa | 0 mm | - | - | - |
| 1777767968 | - | - | 639.3 hPa | 0 mm | - | - | - |
| 1777767964 | 18.33° C | 80% | 1009.3 hPa | 0 mm | - | - | - |
| 1777767063 | 18.33° C | 79% | 1009.4 hPa | 0 mm | - | - | - |
| 1777766164 | 18.33° C | 79% | 1009.5 hPa | 0 mm | - | - | - |
* Rain latest hour (hover to see other rain measurements)
** Current wind speed in m/s (hover to see current wind gust speed)